DLH187 EDDL-LPMA

Flight info

Callsign DLH187
Flight time N/A
Altitude 34000
Route MODRU7Z MODRU Z717 MAS UM617 CIV/N0441F350 N872 MEDIL DCT KOVIN DCT NIDUV DCT KIHVI UN872 ERIGA UN741 AZFIC DCT GATMO DCT LOTEE DCT AGADO DCT UBANI DCT TUNAV DCT TELMU DCT PECKY DCT LIDRO
Aircraft A320/M-SDE3FGHIRWY/LB1

Departure

Time 2026-05-06 19:05
Airport Düsseldorf Airport (EDDL)

Arrival

Time N/A
Airport Cristiano Ronaldo International Airport (LPMA)
Time Latitude Longitude Altitude Speed Heading
2026-05-06 18:08 51.28150 6.76543 128 ft 0 kts 96°
2026-05-06 18:56 51.28152 6.76518 107 ft 4 kts 96°
2026-05-06 18:56 51.28155 6.76482 131 ft 2 kts 96°
2026-05-06 18:57 51.28152 6.76445 123 ft 4 kts 49°
2026-05-06 18:57 51.28131 6.76422 126 ft 4 kts 11°
2026-05-06 18:57 51.28125 6.76420 123 ft 0 kts
2026-05-06 19:00 51.28127 6.76420 123 ft 3 kts
2026-05-06 19:00 51.28148 6.76408 125 ft 1 kts 284°
2026-05-06 19:00 51.28147 6.76385 124 ft 3 kts 261°
2026-05-06 19:00 51.28145 6.76360 123 ft 2 kts 261°
2026-05-06 19:01 51.28178 6.76266 125 ft 13 kts 331°
2026-05-06 19:01 51.28202 6.76173 125 ft 8 kts 243°
2026-05-06 19:01 51.28167 6.76093 123 ft 10 kts 232°
2026-05-06 19:01 51.28115 6.75989 129 ft 13 kts 231°
2026-05-06 19:02 51.28062 6.75885 125 ft 10 kts 230°
2026-05-06 19:02 51.28028 6.75819 129 ft 6 kts 230°
2026-05-06 19:02 51.28009 6.75780 127 ft 5 kts 232°
2026-05-06 19:02 51.27964 6.75677 128 ft 23 kts 235°
2026-05-06 19:03 51.27862 6.75463 122 ft 24 kts 230°
2026-05-06 19:03 51.27841 6.75328 124 ft 3 kts 323°
2026-05-06 19:03 51.27864 6.75320 125 ft 5 kts 346°
2026-05-06 19:03 51.27890 6.75307 121 ft 4 kts 341°
2026-05-06 19:04 51.27974 6.75258 121 ft 17 kts 347°
2026-05-06 19:04 51.28026 6.75315 124 ft 5 kts 70°
2026-05-06 19:04 51.28031 6.75333 123 ft 0 kts 62°
2026-05-06 19:04 51.28076 6.75438 123 ft 41 kts 53°
2026-05-06 19:05 51.28389 6.76085 124 ft 105 kts 52°
2026-05-06 19:05 51.28937 6.77240 126 ft 153 kts 52°
2026-05-06 19:05 51.29618 6.78680 568 ft 160 kts 54°
2026-05-06 19:05 51.30267 6.80104 1329 ft 159 kts 49°
2026-05-06 19:06 51.30968 6.81583 1799 ft 177 kts 50°
2026-05-06 19:06 51.31755 6.83233 2085 ft 196 kts 51°
2026-05-06 19:06 51.32628 6.85056 2316 ft 218 kts 51°
2026-05-06 19:06 51.33570 6.87034 2875 ft 226 kts 52°
2026-05-06 19:07 51.34607 6.88926 3595 ft 228 kts 40°
2026-05-06 19:07 51.35924 6.90335 4318 ft 229 kts 25°
2026-05-06 19:07 51.37446 6.91110 5024 ft 232 kts 10°
2026-05-06 19:07 51.39044 6.91521 5715 ft 234 kts
2026-05-06 19:08 51.40672 6.91946 6291 ft 245 kts
2026-05-06 19:08 51.42405 6.92396 6753 ft 258 kts
2026-05-06 19:08 51.44203 6.92224 7399 ft 264 kts 343°
2026-05-06 19:08 51.45810 6.90771 8092 ft 272 kts 317°
2026-05-06 19:09 51.46848 6.88206 8789 ft 281 kts 289°
2026-05-06 19:09 51.46990 6.85053 9495 ft 290 kts 260°
2026-05-06 19:09 51.46147 6.82157 10134 ft 300 kts 233°
2026-05-06 19:09 51.44694 6.79555 10302 ft 324 kts 228°
2026-05-06 19:10 51.43085 6.76870 10522 ft 343 kts 227°
2026-05-06 19:10 51.41378 6.74085 11087 ft 349 kts 227°
2026-05-06 19:10 51.39687 6.71336 11733 ft 352 kts 227°
2026-05-06 19:10 51.37964 6.68523 12406 ft 355 kts 227°
2026-05-06 19:11 51.36238 6.65682 13069 ft 357 kts 227°
2026-05-06 19:11 51.34500 6.62801 13718 ft 360 kts 228°
2026-05-06 19:11 51.32760 6.59910 14309 ft 362 kts 227°
2026-05-06 19:11 51.31010 6.57006 14925 ft 363 kts 227°
2026-05-06 19:12 51.29251 6.54091 15542 ft 365 kts 227°
2026-05-06 19:12 51.27487 6.51168 16142 ft 366 kts 227°
2026-05-06 19:12 51.25719 6.48232 16750 ft 367 kts 229°
2026-05-06 19:12 51.24257 6.44905 17307 ft 368 kts 244°
2026-05-06 19:13 51.23133 6.41234 17881 ft 369 kts 245°
2026-05-06 19:13 51.22015 6.37541 18405 ft 371 kts 245°
2026-05-06 19:13 51.20891 6.33812 18887 ft 374 kts 245°
2026-05-06 19:13 51.19760 6.30059 19335 ft 376 kts 245°
2026-05-06 19:14 51.18622 6.26290 19780 ft 379 kts 244°
2026-05-06 19:14 51.17474 6.22502 20226 ft 381 kts 244°
2026-05-06 19:14 51.16311 6.18681 20669 ft 384 kts 244°
2026-05-06 19:14 51.15133 6.14836 21103 ft 387 kts 244°
2026-05-06 19:15 51.13947 6.10969 21536 ft 389 kts 244°
2026-05-06 19:15 51.12719 6.07108 21959 ft 392 kts 239°
2026-05-06 19:15 51.11138 6.03556 22360 ft 395 kts 234°
2026-05-06 19:15 51.09498 6.00031 22782 ft 398 kts 234°
2026-05-06 19:16 51.07840 5.96485 23213 ft 400 kts 233°
2026-05-06 19:16 51.06169 5.92921 23596 ft 403 kts 233°
2026-05-06 19:16 51.04511 5.89393 23941 ft 405 kts 233°
2026-05-06 19:16 51.02799 5.85753 24297 ft 407 kts 233°
2026-05-06 19:17 51.01100 5.82136 24649 ft 409 kts 233°
2026-05-06 19:17 50.99421 5.78555 25005 ft 410 kts 233°
2026-05-06 19:17 50.97712 5.74915 25341 ft 412 kts 233°
2026-05-06 19:17 50.95995 5.71268 25688 ft 414 kts 233°
2026-05-06 19:18 50.94267 5.67611 26017 ft 415 kts 233°
2026-05-06 19:18 50.92527 5.63938 26343 ft 417 kts 233°
2026-05-06 19:18 50.90780 5.60255 26664 ft 419 kts 233°
2026-05-06 19:18 50.89025 5.56557 26985 ft 421 kts 233°
2026-05-06 19:19 50.87257 5.52838 27307 ft 423 kts 233°
2026-05-06 19:19 50.85488 5.49118 27630 ft 424 kts 233°
2026-05-06 19:19 50.83707 5.45376 27945 ft 426 kts 233°
2026-05-06 19:19 50.81919 5.41627 28256 ft 428 kts 232°
2026-05-06 19:20 50.80118 5.37857 28568 ft 430 kts 232°
2026-05-06 19:20 50.78312 5.34086 28852 ft 431 kts 232°
2026-05-06 19:20 50.76497 5.30306 29131 ft 433 kts 232°
2026-05-06 19:20 50.74673 5.26511 29415 ft 434 kts 232°
2026-05-06 19:21 50.72844 5.22708 29692 ft 436 kts 232°
2026-05-06 19:21 50.71004 5.18894 29961 ft 437 kts 232°
2026-05-06 19:21 50.69158 5.15067 30212 ft 438 kts 232°
2026-05-06 19:21 50.67313 5.11244 30521 ft 437 kts 232°
2026-05-06 19:22 50.65469 5.07424 30815 ft 437 kts 232°
2026-05-06 19:22 50.63626 5.03610 31108 ft 437 kts 232°
2026-05-06 19:22 50.61791 4.99821 31399 ft 436 kts 232°
2026-05-06 19:22 50.59950 4.96025 31691 ft 436 kts 232°
2026-05-06 19:23 50.58108 4.92235 31977 ft 436 kts 232°
2026-05-06 19:23 50.56265 4.88450 32261 ft 435 kts 232°
2026-05-06 19:23 50.54448 4.84724 32535 ft 435 kts 232°
2026-05-06 19:23 50.52605 4.80953 32816 ft 435 kts 232°
2026-05-06 19:24 50.50763 4.77188 33098 ft 435 kts 232°
2026-05-06 19:24 50.48924 4.73431 33373 ft 434 kts 232°
2026-05-06 19:24 50.47081 4.69669 33659 ft 434 kts 232°
2026-05-06 19:24 50.45238 4.65915 33939 ft 433 kts 232°
2026-05-06 19:25 50.43397 4.62178 34149 ft 433 kts 232°
2026-05-06 19:25 50.41539 4.58423 34368 ft 433 kts 232°
2026-05-06 19:25 50.39688 4.54689 34570 ft 434 kts 232°
2026-05-06 19:25 50.37840 4.50961 34776 ft 434 kts 232°
2026-05-06 19:26 50.35986 4.47215 34896 ft 434 kts 232°
2026-05-06 19:26 50.32300 4.39770 34920 ft 432 kts 232°
2026-05-06 19:27 50.28612 4.32345 34922 ft 432 kts 232°
2026-05-06 19:27 50.24919 4.24930 34923 ft 432 kts 232°
2026-05-06 19:28 50.21228 4.17537 34920 ft 431 kts 232°
2026-05-06 19:28 50.17523 4.10149 34926 ft 432 kts 232°
2026-05-06 19:29 50.13814 4.02787 34932 ft 431 kts 232°
2026-05-06 19:29 50.10125 3.95488 34921 ft 431 kts 232°
2026-05-06 19:30 50.06394 3.88118 34922 ft 431 kts 232°
2026-05-06 19:30 50.02706 3.80823 34921 ft 432 kts 232°
2026-05-06 19:31 49.98961 3.73439 34926 ft 432 kts 232°
2026-05-06 19:31 49.93373 3.62513 34929 ft 432 kts 232°
2026-05-06 19:32 49.89626 3.55206 34935 ft 433 kts 232°
2026-05-06 19:32 49.85886 3.47904 34929 ft 433 kts 232°
2026-05-06 19:33 49.82748 3.41786 34934 ft 433 kts 232°
2026-05-06 19:33 49.78989 3.34496 34937 ft 433 kts 232°
2026-05-06 19:34 49.75223 3.27236 34936 ft 434 kts 232°
2026-05-06 19:34 49.71434 3.19956 34949 ft 434 kts 232°
2026-05-06 19:35 49.67646 3.12674 34937 ft 434 kts 232°
2026-05-06 19:35 49.63878 3.05458 34952 ft 435 kts 232°
2026-05-06 19:36 49.60079 2.98181 34949 ft 435 kts 232°
2026-05-06 19:36 49.56271 2.90921 34952 ft 435 kts 231°
2026-05-06 19:37 49.52532 2.83592 34955 ft 435 kts 234°
2026-05-06 19:37 49.49026 2.76017 34955 ft 435 kts 236°
2026-05-06 19:38 49.45567 2.68382 34952 ft 435 kts 235°
2026-05-06 19:38 49.42045 2.60797 34959 ft 435 kts 235°
2026-05-06 19:39 49.38488 2.53249 34962 ft 436 kts 235°
2026-05-06 19:39 49.34934 2.45715 34972 ft 436 kts 235°
2026-05-06 19:40 49.31381 2.38193 34976 ft 436 kts 235°
2026-05-06 19:40 49.29055 2.33308 34973 ft 436 kts 235°
2026-05-06 19:41 49.25485 2.25792 34965 ft 436 kts 235°
2026-05-06 19:41 49.21925 2.18290 34962 ft 436 kts 235°
2026-05-06 19:42 49.18339 2.10801 34969 ft 436 kts 234°
2026-05-06 19:42 49.14749 2.03396 34974 ft 436 kts 234°
2026-05-06 19:43 49.11124 1.95961 34963 ft 436 kts 234°
2026-05-06 19:43 49.07494 1.88526 34973 ft 437 kts 234°
2026-05-06 19:44 49.03866 1.81108 34971 ft 437 kts 234°
2026-05-06 19:44 49.00225 1.73686 34962 ft 437 kts 234°
2026-05-06 19:45 48.96579 1.66279 34972 ft 437 kts 234°
2026-05-06 19:45 48.92931 1.58873 34985 ft 437 kts 234°
2026-05-06 19:46 48.89272 1.51475 34986 ft 437 kts 234°
2026-05-06 19:46 48.85623 1.44110 34991 ft 437 kts 234°
2026-05-06 19:47 48.81961 1.36737 34990 ft 437 kts 234°
2026-05-06 19:47 48.78289 1.29374 34984 ft 437 kts 234°
2026-05-06 19:48 48.74622 1.22041 34983 ft 437 kts 234°
2026-05-06 19:48 48.70960 1.14744 34979 ft 437 kts 234°
2026-05-06 19:49 48.67277 1.07425 34976 ft 437 kts 234°
2026-05-06 19:49 48.63594 1.00124 34984 ft 437 kts 234°
2026-05-06 19:50 48.59904 0.92807 34980 ft 437 kts 234°
2026-05-06 19:50 48.56208 0.85509 34987 ft 437 kts 234°
2026-05-06 19:51 48.52503 0.78221 34979 ft 437 kts 234°